User: anonymous   Login
Location: Arthez
(43.0833°N, 0.2500°W)
Time: 22:37:01
(UTC+00:00)
Language:

LilacSat-2 - Orbit

View from above orbital plane
View from above orbital plane
View from above satellite
View from above satellite

Ground track
Ground track

The orbit data is extracted from the following two-line orbital elements,

1 40908U 15049K   22222.49661597  .00001871  00000-0  10056-3 0  9999
2 40908  97.5182 222.5549 0015045 182.9671 328.4272 15.16039806380674
Epoch (UTC): 10 August 2022 11:55:07
Eccentricity: 0.0015045
inclination: 97.5182°
perigee height: 507 km
apogee height: 528 km
right ascension of ascending node: 222.5549°
argument of perigee: 182.9671°
revolutions per day: 15.16039806
mean anomaly at epoch: 328.4272°
orbit number at epoch: 38067

The dashed part of the orbit path shows where the satellite is in the earth's shadow,  

DLR